Address 0x0465f3a620b2fbac0c192a07bf2c1e9f3be769bd

Txn Hash Method
Block
From
To
Value [Txn Fee]
0xba5523292ba31e393684acf2344dad1a1278d9037c45019644a96f44c2f638f90xf0ba84401013437292022-09-28 15:41:5521 mins ago0x0465f3a620b2fbac0c192a07bf2c1e9f3be769bdOUT 0x2b216dfa98a7e04690a291d4fc70d9848a0bfee10 ETH0
0x96cd41797d8ea528ad4a5687d07628e2c7b7b786103a77827f6450935ec8048d0xf0ba84401013415442022-09-28 15:07:2655 mins ago0x0465f3a620b2fbac0c192a07bf2c1e9f3be769bdOUT 0x2b216dfa98a7e04690a291d4fc70d9848a0bfee10 ETH0
0x4ae8edfa36ea6204a1c4d42b13acfa1729e8a8685133cfa9c89abb505dfd43f90xf0ba84401013401062022-09-28 14:44:391 hr 18 mins ago0x0465f3a620b2fbac0c192a07bf2c1e9f3be769bdOUT 0x2b216dfa98a7e04690a291d4fc70d9848a0bfee10 ETH0
0x770b74bc3e1dc20c5b5b7ce773ba37f4fed5187ae2d7a4b60e1363972ff6c29c0xf0ba84401013384092022-09-28 14:17:081 hr 45 mins ago0x0465f3a620b2fbac0c192a07bf2c1e9f3be769bdOUT 0x2b216dfa98a7e04690a291d4fc70d9848a0bfee10 ETH0
0x811c3adbd0b38c3f93ee8df287a0fde02ad6da6e2834bdfac0122342ef89d5850xf0ba84401013367442022-09-28 13:49:052 hrs 13 mins ago0x0465f3a620b2fbac0c192a07bf2c1e9f3be769bdOUT 0x2b216dfa98a7e04690a291d4fc70d9848a0bfee10 ETH0
0xc65a21e0b8bda533a5a09d41a449f2996a2068515898581e02e68e272c37ea6d0xf0ba84401013350252022-09-28 13:20:132 hrs 42 mins ago0x0465f3a620b2fbac0c192a07bf2c1e9f3be769bdOUT 0x2b216dfa98a7e04690a291d4fc70d9848a0bfee10 ETH0
0xc7c8fc90b6da1525e524708dc2b1478de42a7f215f4a4ce0127eb14026ae42fe0xf0ba84401013331012022-09-28 12:47:233 hrs 15 mins ago0x0465f3a620b2fbac0c192a07bf2c1e9f3be769bdOUT 0x2b216dfa98a7e04690a291d4fc70d9848a0bfee10 ETH0
0x73569e03b9dec9976bce09b6ae45d15377a7821125b514898e37a562cddd668f0xf0ba84401013307852022-09-28 12:08:103 hrs 54 mins ago0x0465f3a620b2fbac0c192a07bf2c1e9f3be769bdOUT 0x2b216dfa98a7e04690a291d4fc70d9848a0bfee10 ETH0
0x596a72543505af56c9545d2647fd2a0685a362d9e894189d0743ad9578ff987e0xf0ba84401013290112022-09-28 11:38:204 hrs 24 mins ago0x0465f3a620b2fbac0c192a07bf2c1e9f3be769bdOUT 0x2b216dfa98a7e04690a291d4fc70d9848a0bfee10 ETH0
0x05a3fe05c3001e2b4421739f20d4e5c20e84492acf8b677e5270adc825d49fc30xf0ba84401013271112022-09-28 11:06:154 hrs 56 mins ago0x0465f3a620b2fbac0c192a07bf2c1e9f3be769bdOUT 0x2b216dfa98a7e04690a291d4fc70d9848a0bfee10 ETH0
0xf24c403bf7528c21e67e34d6685730dbfa4f004c6196fda681faaea16cd42f480xf0ba84401013257462022-09-28 10:42:405 hrs 20 mins ago0x0465f3a620b2fbac0c192a07bf2c1e9f3be769bdOUT 0x2b216dfa98a7e04690a291d4fc70d9848a0bfee10 ETH0
0x68531d5a1852b038af488dd82623ea60bad87ceb64c6d43583932abca88062fa0xf0ba84401013235612022-09-28 10:05:205 hrs 57 mins ago0x0465f3a620b2fbac0c192a07bf2c1e9f3be769bdOUT 0x2b216dfa98a7e04690a291d4fc70d9848a0bfee10 ETH0
0x9de1dba382196529ec34dd33bb90d15522cda1b113d55b5f4645faf56dcbb7950xf0ba84401013220572022-09-28 9:40:336 hrs 22 mins ago0x0465f3a620b2fbac0c192a07bf2c1e9f3be769bdOUT 0x2b216dfa98a7e04690a291d4fc70d9848a0bfee10 ETH0
0x963a37e66d787bda552956ca9b7962f368c85185a06c530afd1abb0217c55b9b0xf0ba84401013201382022-09-28 9:08:246 hrs 54 mins ago0x0465f3a620b2fbac0c192a07bf2c1e9f3be769bdOUT 0x2b216dfa98a7e04690a291d4fc70d9848a0bfee10 ETH0
0x82d44fee781a99e0002fcb7e69010b1975ddcb6cb2fabf479def6a8fd7c4995a0xf0ba84401013186212022-09-28 8:44:497 hrs 18 mins ago0x0465f3a620b2fbac0c192a07bf2c1e9f3be769bdOUT 0x2b216dfa98a7e04690a291d4fc70d9848a0bfee10 ETH0
0xaee0febfdee826e90ec1d9ffe0fa8538799dfda75cc2745099c35518f5af348f0xf0ba84401013164192022-09-28 8:07:047 hrs 55 mins ago0x0465f3a620b2fbac0c192a07bf2c1e9f3be769bdOUT 0x2b216dfa98a7e04690a291d4fc70d9848a0bfee10 ETH0
0x74a6083bf2ef17ea299490426c2983248776ecba0a9b5f944e36068d3fb9c5290xf0ba84401013149742022-09-28 7:43:438 hrs 19 mins ago0x0465f3a620b2fbac0c192a07bf2c1e9f3be769bdOUT 0x2b216dfa98a7e04690a291d4fc70d9848a0bfee10 ETH0
0xe756718c4d62e3d0c16b879dcd4907ee4168d0cd745dcfed58f401b651a5f30d0xf0ba84401013131372022-09-28 7:15:038 hrs 47 mins ago0x0465f3a620b2fbac0c192a07bf2c1e9f3be769bdOUT 0x2b216dfa98a7e04690a291d4fc70d9848a0bfee10 ETH0
0x2249ab954297db0bc98d3949b1ab06ba2f99d1d795cb683c26216d886f2effbb0xf0ba84401013116682022-09-28 6:50:279 hrs 12 mins ago0x0465f3a620b2fbac0c192a07bf2c1e9f3be769bdOUT 0x2b216dfa98a7e04690a291d4fc70d9848a0bfee10 ETH0
0x7969622d8a8405fc9511542a03f48882494e536a473d90d2301dbee0e6d46e850xf0ba84401013102382022-09-28 6:26:489 hrs 36 mins ago0x0465f3a620b2fbac0c192a07bf2c1e9f3be769bdOUT 0x2b216dfa98a7e04690a291d4fc70d9848a0bfee10 ETH0
0x92954ec91784de740ddfd825e27dd7c175f99cddab21eb43311f8938789b7d930xf0ba84401013068892022-09-28 5:32:0110 hrs 30 mins ago0x0465f3a620b2fbac0c192a07bf2c1e9f3be769bdOUT 0x2b216dfa98a7e04690a291d4fc70d9848a0bfee10 ETH0
0xc114a363fbbba7928999af92744f6b58a9d44800ba5eb2e3f4b3ddd59786e8dd0xf0ba84401013035912022-09-28 4:38:4111 hrs 24 mins ago0x0465f3a620b2fbac0c192a07bf2c1e9f3be769bdOUT 0x2b216dfa98a7e04690a291d4fc70d9848a0bfee10 ETH0
0x19e654fcdb655d38a07010f47877fdc34cc11e5f98e5e9901c04b04f549da40a0xf0ba84401013010862022-09-28 3:56:1712 hrs 6 mins ago0x0465f3a620b2fbac0c192a07bf2c1e9f3be769bdOUT 0x2b216dfa98a7e04690a291d4fc70d9848a0bfee10 ETH0
0xd1786addccb6662c478d3a6c85c357322ccaa30f512f7e2af2d411871d8127800xf0ba84401012977332022-09-28 2:59:1713 hrs 3 mins ago0x0465f3a620b2fbac0c192a07bf2c1e9f3be769bdOUT 0x2b216dfa98a7e04690a291d4fc70d9848a0bfee10 ETH0
0x808013eaccfd5c5e6c2626a5c333543edae498d4e2c154330bb19b7954d0ba5e0xf0ba84401012928362022-09-28 1:36:3114 hrs 26 mins ago0x0465f3a620b2fbac0c192a07bf2c1e9f3be769bdOUT 0x2b216dfa98a7e04690a291d4fc70d9848a0bfee10 ETH0
[ Download CSV Export 
Parent Txn Hash Block From To Value
Loading

Contract Name:
0

Compiler Version
0

Optimization Enabled:
0

Other Settings:
-NA-
Block Transaction Gas Used Reward
Age Block Fee Address BC Fee Address Voting Power Jailed Incoming
Block Uncle Number Difficulty Gas Used Reward
Loading